Weather History for Ft Lauderdale, FL

Change the Weather History Date:

Tuesday, December 4, 2012

  Actual Average Record
Temperature  
Mean Temperature 73 °F 73 °F  
Max Temperature 78 °F 79 °F 88 °F (1983)
Min Temperature 68 °F 66 °F 40 °F (1957)
Degree Days  
Heating Degree Days 0 0  
Month to date heating degree days 0 0  
Since 1 July heating degree days 2  
Cooling Degree Days 8 8  
Month to date cooling degree days 41 33  
Year to date cooling degree days 4396 4546  
Growing Degree Days 23 (Base 50)    
Moisture  
Dew Point 60 °F    
Average Humidity 55    
Maximum Humidity 64    
Minimum Humidity 46    
Precipitation  
Precipitation 0.05 in 0.09 in 2.11 in (1997)
Month to date precipitation 0.05 0.32  
Year to date precipitation 60.17 60.04  
Snow  
Snow 0.00 in - - ()
Month to date snowfall 0.0  
Since 1 July snowfall 0.0  
Snow Depth 0.00 in    
Sea Level Pressure  
Sea Level Pressure 30.18 in    
Wind  
Wind Speed 13 mph (ENE)    
Max Wind Speed 20 mph    
Max Gust Speed 28 mph    
Visibility 10 miles    
Events Rain    
T = Trace of Precipitation, MM = Missing Value Source: NWS Daily Summary

Daily Weather History Graph

Daily Weather History Graph

Search for Another Location

Airport:

Trip Planner

Search our weather history database for the weather conditions in past years. The results will help you decide how hot, cold, wet, or windy it might be!

Date:

Astronomy

Dec. 04, 2012 Rise Set
Actual Time 6:53 AM EST 5:28 PM EST
Civil Twilight 6:28 AM EST 5:53 PM EST
Nautical Twilight 5:59 AM EST 6:22 PM EST
Astronomical Twilight 5:31 AM EST 6:50 PM EST
Moon 10:52 PM EST (12/4) 11:05 AM EST (12/4)
Length of Visible Light 11h 25m
Length of Day
10h 35m
Waning Gibbous, 69% of the Moon is Illuminated
Dec 4
Waning Gibbous
Dec 6
Last Quarter
Dec 13
New
Dec 20
First Quarter
Dec 28
Full

Hourly Weather History & Observations

Time (EST) Temp. Dew Point Humidity Pressure Visibility Wind Dir Wind Speed Gust Speed Precip Events Conditions
12:53 AM 73.0 °F 53.1 °F 49% 30.19 in 10.0 mi East 12.7 mph - N/A   Scattered Clouds
1:53 AM 72.0 °F 57.9 °F 61% 30.17 in 10.0 mi ENE 11.5 mph - N/A   Partly Cloudy
2:53 AM 73.0 °F 59.0 °F 61% 30.17 in 10.0 mi East 12.7 mph - N/A   Mostly Cloudy
3:53 AM 72.0 °F 62.1 °F 71% 30.17 in 10.0 mi East 11.5 mph - 0.00 in Rain Light Rain
4:53 AM 73.0 °F 61.0 °F 66% 30.16 in 10.0 mi East 15.0 mph - 0.00 in   Mostly Cloudy
5:53 AM 69.1 °F 64.0 °F 84% 30.17 in 5.0 mi Calm Calm - 0.03 in Rain Light Rain
6:53 AM 73.0 °F 62.1 °F 68% 30.18 in 10.0 mi ENE 9.2 mph - 0.00 in   Mostly Cloudy
7:53 AM 73.0 °F 60.1 °F 64% 30.19 in 10.0 mi East 9.2 mph 20.7 mph N/A   Mostly Cloudy
8:53 AM 73.9 °F 61.0 °F 64% 30.21 in 10.0 mi East 11.5 mph - N/A   Scattered Clouds
9:53 AM 73.0 °F 64.0 °F 73% 30.22 in 6.0 mi East 10.4 mph - 0.01 in Rain Light Rain
10:53 AM 73.9 °F 64.0 °F 71% 30.22 in 10.0 mi East 11.5 mph 19.6 mph 0.01 in   Overcast
11:53 AM 77.0 °F 62.1 °F 60% 30.21 in 10.0 mi ENE 18.4 mph 23.0 mph N/A   Overcast
12:53 PM 75.0 °F 59.0 °F 57% 30.18 in 10.0 mi East 13.8 mph - 0.00 in   Overcast
1:53 PM 77.0 °F 57.0 °F 50% 30.16 in 10.0 mi East 13.8 mph - N/A   Scattered Clouds
2:53 PM 77.0 °F 57.0 °F 50% 30.15 in 10.0 mi East 13.8 mph - N/A   Mostly Cloudy
3:53 PM 75.9 °F 57.0 °F 52% 30.15 in 10.0 mi ENE 9.2 mph - N/A   Mostly Cloudy
4:53 PM 75.9 °F 59.0 °F 56% 30.16 in 10.0 mi ENE 10.4 mph - N/A   Mostly Cloudy
5:53 PM 75.0 °F 57.0 °F 53% 30.16 in 10.0 mi East 10.4 mph - N/A   Overcast
6:53 PM 75.0 °F 57.9 °F 55% 30.17 in 10.0 mi East 8.1 mph - 0.00 in   Mostly Cloudy
7:53 PM 73.9 °F 61.0 °F 64% 30.17 in 10.0 mi ENE 10.4 mph 19.6 mph N/A   Mostly Cloudy
8:53 PM 73.9 °F 60.1 °F 62% 30.17 in 10.0 mi ENE 10.4 mph - 0.00 in   Mostly Cloudy
9:53 PM 73.9 °F 60.1 °F 62% 30.17 in 10.0 mi ENE 12.7 mph - N/A   Mostly Cloudy
10:53 PM 72.0 °F 61.0 °F 68% 30.16 in 10.0 mi NE 11.5 mph - 0.00 in   Overcast
11:53 PM 73.0 °F 64.0 °F 73% 30.14 in 6.0 mi ENE 10.4 mph - 0.00 in Rain Rain